Wind_Speed
7 11 9 12 15 10 10 7 7 7 7 12 9 9 8 5 5 6 5 4 3 4 6 6 7 8 8 9 6 4 0 3 5 6 2 4 6 7 13 8 9 9 10 8
7 10 9 9 10 9 9 7 11 8 13 9 12 6 4 6 7 7 6 4 4 4 7 7 7 8 7 11 10 5 1 1 2 5 0 5 6 7 11 8 9 8 8 8
5 7 10 8 7 7 6 5 8 7 16 2 7 7 6 8 8 8 7 6 5 5 7 9 8 10 9 6 10 6 4 3 3 1 3 3 5 4 9 8 8 7 7 9
4 5 3 7 10 8 9 7 10 7 5 8 11 7 6 8 9 8 7 6 7 7 8 11 10 9 9 8 10 8 7 6 5 3 3 6 4 6 4 6 6 7 4 7
2 2 8 11 2 2 3 6 8 7 6 8 8 3 5 1 4 7 7 8 8 7 9 11 12 11 11 11 11 10 11 9 8 7 4 7 5 2 2 4 5 4 1 4
1 2 5 6 3 6 5 5 2 6 5 4 6 1 5 5 6 7 9 9 11 9 9 11 11 13 14 13 14 14 12 12 10 10 7 7 7 4 3 4 7 2 4 4
3 3 9 8 8 3 3 6 5 5 5 4 1 6 6 7 6 13 14 14 13 14 13 13 13 15 16 15 15 13 11 12 11 11 10 9 10 8 6 7 7 7 7 7
3 4 8 6 2 4 7 5 3 5 5 6 6 5 6 8 9 14 15 17 18 18 18 17 16 18 19 19 17 16 16 15 13 13 13 12 13 14 11 9 9 9 11 11
9 7 8 6 6 6 6 8 7 7 9 9 7 6 6 7 9 14 21 23 22 24 22 21 23 22 21 21 17 17 18 18 16 15 15 15 14 13 13 12 14 13 12 14
1 10 12 9 9 7 11 12 11 9 8 8 8 9 8 7 6 11 21 22 25 25 25 25 25 26 25 21 19 18 18 21 20 19 18 18 17 16 18 19 17 17 17 16
7 18 10 11 16 14 9 6 4 5 4 3 6 7 7 5 6 11 20 25 27 27 27 29 28 29 28 24 22 22 23 22 22 22 22 21 22 22 23 23 23 23 22 20
10 23 6 15 9 9 11 12 7 6 6 7 6 6 4 6 11 9 12 16 25 29 29 29 29 29 28 29 28 27 25 25 26 26 25 24 24 25 25 25 24 23 25 24
18 18 15 18 13 11 15 15 11 8 7 3 4 5 6 4 8 11 10 11 15 25 29 28 26 29 30 29 31 33 32 30 28 27 28 28 27 27 27 25 25 27 29 30
10 6 11 11 8 6 5 10 12 7 6 7 8 9 10 7 6 7 11 13 14 15 20 26 28 30 30 31 31 34 36 34 34 33 31 31 31 31 30 29 28 30 28 32
18 18 16 17 13 10 14 7 5 7 5 5 9 10 7 6 8 12 12 14 17 16 19 23 29 34 31 31 33 36 38 38 37 36 36 36 33 31 32 31 31 30 28 28
8 10 8 9 10 8 8 7 5 5 4 2 3 5 8 10 10 12 14 15 14 19 25 23 27 31 32 31 34 35 38 40 38 36 35 33 32 31 29 27 28 32 32 31
11 15 6 9 8 7 6 1 3 3 1 3 4 7 8 10 12 16 18 17 17 19 22 21 25 26 30 32 33 36 38 39 40 36 33 33 32 31 28 27 27 29 32 32
17 17 8 2 3 2 1 5 6 6 4 5 7 8 9 9 7 14 18 22 25 26 24 20 20 22 23 27 28 29 32 33 33 34 33 27 29 29 27 26 27 29 28 30
7 6 7 9 10 8 6 8 9 8 8 8 8 8 9 11 12 14 16 17 18 18 22 16 18 12 12 14 18 20 21 21 23 24 24 27 28 28 27 30 30 26 28 31
10 16 18 16 18 15 11 14 12 10 11 11 10 11 13 15 15 14 12 12 14 14 13 10 6 7 7 5 2 2 1 1 3 4 7 9 12 15 15 18 22 30 28 27
9 12 11 12 11 13 11 12 12 11 10 8 8 8 10 15 16 16 15 11 10 10 10 11 11 11 11 11 10 11 13 14 14 15 18 22 24 27 26 27 27 25 27 29
9 8 10 9 8 7 9 10 11 10 10 9 9 9 10 9 10 10 6 4 6 7 9 12 14 13 12 12 12 13 14 16 18 20 22 22 22 23 24 25 25 26 27 27
6 5 5 3 3 8 18 20 20 19 19 15 14 11 9 8 10 9 5 11 12 14 15 15 13 14 13 13 14 15 17 17 18 19 20 22 24 24 25 25 25 25 26 27
8 12 14 14 15 17 12 15 15 14 10 9 8 9 9 11 12 10 11 13 14 14 15 16 15 13 13 13 15 16 15 17 18 18 18 19 21 22 23 25 23 22 24 27
14 15 15 15 13 10 12 11 9 10 10 11 11 11 11 11 10 15 16 15 15 15 14 14 15 17 19 20 19 18 19 19 17 20 21 21 22 22 20 23 26 26 25 24
14 13 14 13 9 9 9 10 9 10 9 9 12 15 15 15 14 13 14 16 15 15 15 18 19 19 20 19 19 20 21 22 22 22 23 22 21 21 23 24 25 24 24 24
12 12 12 12 10 10 10 10 11 12 11 14 15 16 16 17 18 18 17 17 15 16 20 22 22 20 21 22 22 21 20 21 19 20 21 23 23 24 25 25 26 24 25 23
Wind_Direction
263 276 287 271 268 244 200 198 174 252 252 266 275 269 272 252 244 249 254 275 233 165 162 158 147 159 165 162 148 130 2 349 352 360 116 19 5 3 356 18 35 35 23 24
284 266 275 272 262 243 234 213 236 261 272 260 263 262 199 230 242 253 239 243 278 174 170 156 142 157 139 148 152 156 185 298 307 342 221 20 9 6 9 31 21 29 29 15
267 336 328 314 244 214 205 188 168 200 242 210 276 257 257 266 239 234 231 216 232 229 171 152 140 153 149 167 177 167 193 245 258 330 332 305 16 3 342 29 23 16 19 9
269 350 352 242 306 286 206 232 212 243 219 208 228 225 239 245 232 217 214 208 206 209 167 157 158 159 159 170 177 180 205 234 234 233 279 222 350 325 38 22 21 359 21 2
214 262 283 295 301 82 139 278 247 225 243 235 248 180 293 52 143 189 196 189 187 194 185 171 173 177 180 189 196 203 209 222 235 209 236 280 283 140 1 346 326 350 5 340
352 201 250 242 61 63 63 312 310 100 32 9 117 49 257 193 151 144 152 170 183 188 182 179 185 189 191 199 205 209 220 225 224 227 235 250 282 243 260 294 313 318 320 288
203 267 282 256 282 122 88 234 10 48 9 16 274 211 240 175 181 181 183 183 188 195 201 205 205 203 202 209 216 227 229 213 211 218 226 241 252 248 248 256 271 291 287 289
169 213 273 232 147 179 217 276 283 291 267 259 237 268 232 214 189 184 183 189 194 195 206 212 211 210 212 215 229 227 222 218 217 220 225 236 248 244 236 249 254 271 278 270
177 212 227 251 204 230 252 260 271 263 249 233 242 240 236 225 213 197 196 199 201 204 210 215 217 218 220 230 227 225 222 218 218 222 227 230 238 246 236 247 253 257 271 284
265 260 247 250 270 265 284 264 259 258 256 236 226 236 236 235 216 207 206 202 207 206 210 217 219 220 229 231 230 227 227 222 222 222 227 230 236 240 241 239 240 250 252 261
281 278 281 267 256 266 280 298 303 320 309 288 236 254 242 232 230 225 213 213 211 208 211 219 220 223 226 227 223 226 230 230 227 227 228 232 235 236 237 241 242 238 240 246
250 261 241 268 274 295 296 298 281 282 291 274 258 265 274 256 243 231 223 222 216 217 219 225 221 222 228 225 223 222 226 228 228 229 230 235 239 242 245 249 249 250 249 242
247 264 260 261 272 269 268 268 269 258 254 270 277 292 301 276 264 239 231 241 235 225 225 227 223 223 227 226 224 224 226 231 232 232 232 232 234 238 244 244 246 250 251 246
263 294 278 257 250 266 281 280 287 262 241 251 254 264 274 279 295 263 242 251 260 248 234 229 229 230 232 227 227 228 229 233 233 233 234 235 236 238 241 243 240 245 246 244
262 267 262 270 268 261 267 266 296 275 248 250 267 257 251 269 277 276 275 257 255 259 252 239 233 237 235 231 228 229 232 231 234 236 239 240 240 243 247 246 246 249 252 252
270 265 271 258 266 258 249 252 257 276 261 265 288 304 283 276 284 298 305 290 260 258 263 257 245 252 245 236 233 232 234 238 235 235 236 237 239 241 243 247 247 250 249 247
268 275 271 274 271 276 251 202 101 92 48 28 358 358 359 352 343 341 339 339 322 308 298 287 278 277 260 248 239 235 235 237 236 233 233 235 239 240 243 246 252 256 256 260
243 248 252 237 353 288 150 90 66 35 35 22 2 360 3 6 353 338 333 325 319 314 307 318 306 287 275 254 241 240 243 241 238 235 236 232 235 238 242 249 252 256 266 272
108 79 56 57 58 60 59 56 49 31 8 355 350 357 351 359 350 330 324 323 326 323 319 315 328 327 281 258 250 250 252 249 243 240 242 247 245 244 246 246 250 257 265 259
61 69 66 62 51 44 32 26 24 17 13 20 29 20 5 351 339 322 325 328 343 331 338 357 6 11 37 20 356 23 356 290 334 277 241 267 276 269 265 269 278 274 261 262
78 72 65 61 54 47 38 19 4 355 357 28 33 20 5 354 357 351 357 10 26 15 18 24 25 17 10 7 357 344 328 325 312 304 297 278 276 281 280 276 270 264 263 262
77 75 76 65 49 23 9 360 351 21 38 42 60 45 29 23 29 38 38 23 359 356 4 1 358 353 349 345 339 327 313 302 297 294 292 283 275 273 271 271 268 270 269 268
63 72 82 58 55 47 58 49 50 50 57 60 51 42 30 23 19 17 3 2 358 354 349 343 334 325 322 319 324 324 322 318 310 302 298 290 278 271 270 268 267 267 265 264
61 58 61 62 59 57 54 32 39 36 44 42 26 16 11 1 353 355 353 347 340 336 347 347 340 342 340 337 332 325 319 316 311 308 308 309 309 309 307 305 300 290 286 286
80 78 67 60 56 47 43 27 28 25 19 16 16 18 9 1 341 340 350 4 8 7 2 353 348 345 342 338 333 326 323 320 318 312 306 302 301 302 304 311 309 303 297 294
62 76 77 68 69 67 60 55 50 35 21 4 5 7 1 359 3 7 360 356 359 358 353 343 344 343 338 333 328 321 316 312 309 305 303 305 308 304 304 307 303 304 301 300
57 76 84 78 70 70 65 51 36 15 16 17 5 1 3 4 4 4 5 1 3 359 349 346 344 340 334 329 324 323 322 320 319 317 315 313 306 305 307 307 302 300 299 299
Height
866 858 855 860 853 850 865 875 877 851 858 839 840 842 836 832 830 828 826 826 826 827 828 829 831 833 834 836 838 839 841 841 840 840 839 839 838 838 836 834 833 833 833 830
869 854 856 851 842 840 840 848 854 852 851 827 825 823 828 827 826 824 823 823 824 824 825 826 829 831 832 834 835 837 839 840 840 840 838 838 838 837 836 836 835 833 833 831
878 858 862 865 835 832 830 828 844 853 825 820 822 821 822 822 819 819 820 820 821 821 822 824 826 829 831 832 834 835 837 838 838 838 839 838 838 837 836 836 835 834 834 832
881 870 891 834 808 809 820 816 822 820 821 819 817 813 815 813 812 814 815 815 817 819 820 822 824 826 828 831 833 834 835 836 837 837 837 837 838 837 836 836 836 835 834 832
894 887 858 824 807 810 817 823 805 808 807 809 807 809 811 805 803 807 811 812 814 816 817 819 821 823 825 827 829 831 832 833 834 835 836 837 836 837 837 837 836 835 835 833
879 882 883 837 809 805 808 847 799 799 800 800 810 834 819 800 801 803 806 809 811 814 816 817 818 819 820 822 824 827 829 831 832 833 833 834 834 834 835 835 835 835 834 833
887 896 863 821 808 804 835 838 799 800 802 803 814 814 799 796 798 799 801 804 807 809 811 813 815 816 817 819 821 823 824 825 826 828 830 831 831 831 832 832 833 833 832 832
882 881 870 807 810 819 818 800 796 797 795 795 795 793 793 792 793 794 796 798 801 803 805 808 810 811 812 813 815 817 817 819 822 824 826 827 827 828 829 829 830 831 830 829
851 844 815 803 804 799 798 799 797 794 789 788 788 787 785 787 788 788 789 791 793 796 799 802 804 805 807 808 810 812 814 816 817 818 819 821 823 824 825 825 825 825 825 826
824 807 802 800 793 791 790 789 784 783 781 780 780 780 779 779 780 781 783 785 788 791 793 795 798 800 802 806 808 810 810 811 812 813 815 816 818 819 819 819 820 820 820 820
816 796 797 793 785 784 785 781 780 778 777 775 776 776 775 775 775 776 777 778 780 782 785 787 790 792 795 798 801 803 805 806 807 808 808 808 809 810 809 810 811 811 812 813
812 785 797 787 782 780 781 779 776 774 773 772 771 771 770 770 769 770 771 772 773 774 776 778 781 784 786 790 792 794 795 796 798 799 801 803 804 804 805 804 806 807 808 808
790 780 784 778 775 774 774 771 768 767 767 767 767 767 767 767 766 765 767 768 769 769 771 773 775 777 779 781 783 785 786 789 790 792 793 794 794 796 796 797 798 799 800 800
778 778 777 771 772 767 767 766 764 763 762 763 763 763 763 764 764 764 764 765 765 767 767 768 769 769 771 774 776 776 777 778 779 781 782 784 785 785 786 787 788 788 790 793
774 769 768 762 760 760 759 758 758 759 757 758 758 759 760 760 760 760 761 761 761 761 760 761 761 759 762 765 766 767 769 770 771 773 774 775 777 778 780 782 782 781 783 784
766 763 761 761 757 755 754 754 754 756 755 755 756 756 756 756 757 757 758 759 758 756 756 756 755 755 757 758 758 759 761 762 763 764 766 769 770 771 772 773 774 774 774 774
765 759 758 756 754 751 749 750 752 754 755 755 756 757 756 757 757 758 759 758 757 756 755 753 752 751 751 750 750 750 750 752 754 757 758 759 761 763 765 766 766 766 765 767
747 749 751 749 749 748 748 749 751 754 755 755 756 756 756 757 758 758 758 756 754 752 749 747 744 742 740 740 741 743 744 745 747 748 750 753 754 755 756 758 759 758 758 760
738 740 743 746 749 750 750 750 752 755 756 756 755 756 758 757 756 756 756 755 753 751 748 747 743 740 737 738 738 739 740 741 742 744 745 746 747 749 750 750 751 751 750 751
743 744 746 749 751 754 756 756 754 754 756 757 757 756 755 756 756 755 754 752 750 749 748 746 743 741 739 739 740 740 740 740 742 742 742 744 745 746 746 746 742 744 743 742
748 750 751 752 754 754 756 758 756 755 755 756 757 759 760 759 758 754 752 753 754 752 750 747 745 744 742 741 741 741 741 741 741 741 740 741 741 741 739 736 737 735 734 734
749 751 753 755 755 756 756 755 756 755 755 756 757 758 757 758 757 754 752 753 752 750 748 748 747 745 743 741 739 738 738 738 738 737 736 736 734 733 732 731 730 729 728 727
751 751 752 754 755 757 758 758 759 759 760 760 760 760 760 760 758 756 755 754 752 750 749 747 745 743 742 741 739 738 737 736 735 733 731 730 729 726 726 725 722 722 722 719
749 753 755 755 756 757 760 762 762 763 763 764 764 762 760 759 757 756 754 752 751 750 748 747 745 742 741 739 737 735 733 732 731 731 729 727 727 723 722 721 718 717 715 713
750 752 755 757 759 762 763 764 766 766 767 767 765 763 761 759 760 758 755 752 750 748 748 746 744 742 740 737 735 734 732 730 726 726 724 722 721 718 717 715 713 710 708 706
755 755 758 761 764 765 765 765 765 767 767 766 765 762 760 759 756 754 751 750 748 748 747 744 741 738 736 733 730 729 728 728 724 721 720 717 715 712 711 708 706 704 701 698
761 761 762 764 766 768 767 767 766 766 767 767 763 763 761 758 756 753 751 749 747 745 745 743 741 738 735 733 730 726 721 721 718 716 715 712 710 707 704 702 699 697 694 692